Lid_Strength_Index
0 0 1 1 0 0 1 1 3 5 4 2 2 -0 -1 1 -1 0 3 4 3 3 3 3 3 2 2 1 0 -0 -1 -1 -1 -1 -1 -1 -1 -1
0 1 0 0 0 0 1 1 1 3 5 2 1 0 -0 -0 -1 1 4 4 4 4 4 4 4 3 3 3 2 2 1 1 0 -0 -1 -1 -1 -1
0 1 0 0 1 1 1 1 1 2 3 2 1 0 0 0 -0 0 2 3 4 3 4 4 5 5 5 5 4 4 3 2 2 1 0 -0 -1 -1
1 1 1 0 1 0 1 1 1 1 2 3 2 1 1 0 -0 0 -0 4 5 4 4 4 5 6 6 7 7 7 6 6 5 3 2 2 1 0
0 1 1 0 1 1 1 1 1 1 1 2 3 1 1 0 1 0 1 4 4 3 4 4 4 5 6 6 7 8 9 8 8 7 6 5 4 3
-0 0 0 1 1 1 1 1 1 1 1 2 2 2 1 1 1 2 2 1 4 3 2 3 4 4 4 5 5 6 7 8 8 8 8 7 6 6
0 0 0 0 1 0 1 1 1 1 2 2 3 2 2 2 3 2 2 1 1 0 4 4 3 5 5 6 6 6 7 7 7 7 8 8 8 8
1 0 0 0 1 2 1 1 0 1 2 2 2 3 2 2 1 2 2 3 4 -0 1 2 4 6 6 8 7 7 7 7 7 7 7 7 8 8
0 0 1 0 0 -0 2 3 2 1 1 1 2 2 2 1 1 2 2 2 2 1 1 4 5 7 8 9 7 7 7 8 8 8 8 8 9 9
0 0 1 0 4 2 1 1 0 2 2 2 1 2 2 2 1 0 1 1 1 0 0 3 4 8 9 9 9 8 8 9 9 9 9 9 10 10
2 6 4 2 8 7 2 1 2 3 5 6 6 6 5 5 4 0 3 2 3 2 0 2 2 7 9 10 10 9 8 9 9 9 9 9 10 10
3 6 8 8 8 8 3 2 2 2 3 3 3 3 3 5 5 6 6 5 3 3 6 4 2 3 6 8 10 10 10 10 10 9 9 9 10 9
4 6 7 9 10 9 8 6 6 4 4 3 4 6 6 7 7 7 7 7 6 7 6 4 4 4 4 6 8 9 9 10 10 10 9 10 10 10
5 7 9 10 11 10 8 8 8 6 5 5 6 6 6 7 7 7 8 7 6 6 6 6 6 6 7 6 5 5 6 7 6 8 7 10 9 9
6 8 9 10 9 8 8 7 7 6 6 6 7 7 7 7 6 7 7 7 7 7 6 5 5 5 5 6 5 5 6 6 6 6 5 5 5 7
7 7 6 6 7 7 6 6 5 5 5 6 6 6 5 6 5 6 6 6 7 6 5 5 5 5 5 5 6 7 6 6 5 6 6 5 5 5
6 6 6 7 7 6 7 7 7 7 7 6 7 6 6 6 5 5 6 6 6 6 6 6 5 6 6 7 7 7 7 7 5 6 6 7 6 6
6 7 7 7 7 7 7 7 7 7 6 7 8 8 8 9 10 8 8 8 8 8 7 7 7 7 7 7 7 6 6 7 6 5 6 6 6 5
4 4 5 5 5 5 5 6 5 7 7 7 8 8 9 8 9 8 7 8 7 7 6 6 7 7 9 9 8 7 7 6 6 6 6 6 6 6
3 3 3 3 3 3 3 3 3 4 4 4 4 4 4 4 5 6 6 7 6 5 6 6 6 7 8 8 6 5 7 5 6 6 6 6 5 4
1 1 1 1 1 1 1 1 1 2 2 2 2 2 2 3 3 3 5 6 6 5 5 6 6 5 4 4 6 5 5 5 5 6 5 6 7 6
1 1 0 0 0 0 0 0 1 2 2 2 2 2 3 3 5 5 5 5 5 5 5 4 3 3 4 5 6 5 4 5 4 3 3 3 5 7
1 0 0 0 -0 -0 0 0 1 1 1 1 2 2 2 3 3 3 4 4 3 3 4 4 3 3 4 4 5 4 4 4 4 3 3 1 1 1